| time (UTC) | temp C | wind direction | speed KPH | gust KPH | rain 1hr cm | rain 24hr cm | rain mn cm | humidity % | barometer mb |
| 20260508181435 | 17 | 277 | 4.8 | 12.9 | 0.00 | 0.00 | 0.00 | 66 | 1014.7 |
| 20260508180935 | 17 | 355 | 4.8 | 11.3 | 0.00 | 0.00 | 0.00 | 66 | 1014.6 |
| 20260508180435 | 18 | 98 | 1.6 | 11.3 | 0.00 | 0.00 | 0.00 | 65 | 1014.6 |
| 20260508175935 | 18 | 70 | 4.8 | 14.5 | 0.00 | 0.00 | 0.00 | 65 | 1014.5 |
| 20260508175435 | 18 | 41 | 4.8 | 12.9 | 0.00 | 0.00 | 0.00 | 64 | 1014.5 |
| 20260508174935 | 18 | 327 | 3.2 | 16.1 | 0.00 | 0.00 | 0.00 | 64 | 1014.4 |
| 20260508174435 | 18 | 275 | 3.2 | 11.3 | 0.00 | 0.00 | 0.00 | 64 | 1014.3 |
| 20260508173935 | 18 | 348 | 8.0 | 12.9 | 0.00 | 0.00 | 0.00 | 64 | 1014.3 |
| 20260508173436 | 18 | 5 | 8.0 | 14.5 | 0.00 | 0.00 | 0.00 | 63 | 1014.2 |
| 20260508172936 | 18 | 34 | 6.4 | 12.9 | 0.00 | 0.00 | 0.00 | 63 | 1014.2 |
| 20260508172435 | 19 | 323 | 6.4 | 14.5 | 0.00 | 0.00 | 0.00 | 62 | 1014.1 |
| 20260508171935 | 19 | 311 | 4.8 | 12.9 | 0.00 | 0.00 | 0.00 | 62 | 1014.1 |
| 20260508171435 | 19 | 85 | 1.6 | 11.3 | 0.00 | 0.00 | 0.00 | 62 | 1014.1 |
| 20260508170935 | 19 | 53 | 6.4 | 16.1 | 0.00 | 0.00 | 0.00 | 60 | 1014.0 |
| 20260508170436 | 19 | 349 | 6.4 | 12.9 | 0.00 | 0.00 | 0.00 | 60 | 1014.0 |
| 20260508165936 | 20 | 267 | 4.8 | 14.5 | 0.00 | 0.00 | 0.00 | 60 | 1013.9 |
| 20260508165436 | 20 | 189 | 4.8 | 16.1 | 0.00 | 0.00 | 0.00 | 59 | 1013.9 |
| 20260508164935 | 20 | 50 | 4.8 | 20.9 | 0.00 | 0.00 | 0.00 | 59 | 1013.9 |
| 20260508164435 | 20 | 355 | 6.4 | 12.9 | 0.00 | 0.00 | 0.00 | 59 | 1013.9 |
| 20260508163936 | 20 | 238 | 4.8 | 12.9 | 0.00 | 0.00 | 0.00 | 59 | 1013.9 |
| 20260508163435 | 20 | 294 | 4.8 | 11.3 | 0.00 | 0.00 | 0.00 | 59 | 1014.0 |
| 20260508162936 | 20 | 335 | 4.8 | 19.3 | 0.00 | 0.00 | 0.00 | 58 | 1014.0 |
| 20260508162436 | 20 | 310 | 3.2 | 9.7 | 0.00 | 0.00 | 0.00 | 59 | 1014.0 |
| 20260508161935 | 20 | 258 | 3.2 | 17.7 | 0.00 | 0.00 | 0.00 | 60 | 1014.0 |
| 20260508161436 | 21 | 92 | 6.4 | 19.3 | 0.00 | 0.00 | 0.00 | 57 | 1014.0 |
| 20260508160935 | 21 | 355 | 6.4 | 14.5 | 0.00 | 0.00 | 0.00 | 57 | 1014.0 |
| 20260508160435 | 21 | 304 | 6.4 | 17.7 | 0.00 | 0.00 | 0.00 | 58 | 1014.0 |
| 20260508155936 | 21 | 48 | 6.4 | 12.9 | 0.00 | 0.00 | 0.00 | 57 | 1014.1 |
| 20260508155435 | 21 | 44 | 4.8 | 16.1 | 0.00 | 0.00 | 0.00 | 58 | 1014.1 |
| 20260508154935 | 21 | 5 | 8.0 | 19.3 | 0.00 | 0.00 | 0.00 | 55 | 1014.1 |
| 20260508154436 | 21 | 200 | 6.4 | 14.5 | 0.00 | 0.00 | 0.00 | 57 | 1014.0 |
| 20260508153936 | 21 | 334 | 6.4 | 12.9 | 0.00 | 0.00 | 0.00 | 55 | 1014.1 |
| 20260508153435 | 21 | 54 | 6.4 | 14.5 | 0.00 | 0.00 | 0.00 | 55 | 1014.0 |
| 20260508152934 | 21 | 355 | 6.4 | 16.1 | 0.00 | 0.00 | 0.00 | 55 | 1014.1 |
| 20260508152436 | 21 | 11 | 4.8 | 12.9 | 0.00 | 0.00 | 0.00 | 56 | 1014.1 |
| 20260508151934 | 22 | 218 | 9.7 | 20.9 | 0.00 | 0.00 | 0.00 | 54 | 1014.2 |
| 20260508151435 | 21 | 348 | 6.4 | 12.9 | 0.00 | 0.00 | 0.00 | 53 | 1014.2 |
| 20260508150936 | 22 | 310 | 4.8 | 19.3 | 0.00 | 0.00 | 0.00 | 54 | 1014.3 |
| 20260508150435 | 22 | 24 | 4.8 | 9.7 | 0.00 | 0.00 | 0.00 | 55 | 1014.3 |
| 20260508145935 | 22 | 317 | 4.8 | 14.5 | 0.00 | 0.00 | 0.00 | 55 | 1014.3 |
| 20260508145436 | 22 | 292 | 4.8 | 16.1 | 0.00 | 0.00 | 0.00 | 55 | 1014.4 |
| 20260508144936 | 22 | 257 | 4.8 | 11.3 | 0.00 | 0.00 | 0.00 | 56 | 1014.3 |
| 20260508144435 | 22 | 44 | 6.4 | 16.1 | 0.00 | 0.00 | 0.00 | 55 | 1014.4 |
| 20260508143935 | 22 | 343 | 6.4 | 17.7 | 0.00 | 0.00 | 0.00 | 57 | 1014.4 |
| 20260508143435 | 22 | 30 | 6.4 | 14.5 | 0.00 | 0.00 | 0.00 | 56 | 1014.5 |
| 20260508142935 | 22 | 360 | 4.8 | 11.3 | 0.00 | 0.00 | 0.00 | 53 | 1014.6 |
| 20260508142435 | 22 | 331 | 6.4 | 12.9 | 0.00 | 0.00 | 0.00 | 56 | 1014.6 |
| 20260508141936 | 22 | 330 | 8.0 | 14.5 | 0.00 | 0.00 | 0.00 | 55 | 1014.7 |
| 20260508141436 | 22 | 35 | 4.8 | 12.9 | 0.00 | 0.00 | 0.00 | 57 | 1014.7 |
| 20260508140935 | 22 | 5 | 6.4 | 14.5 | 0.00 | 0.00 | 0.00 | 56 | 1014.7 |
| 20260508140435 | 22 | 96 | 6.4 | 14.5 | 0.00 | 0.00 | 0.00 | 56 | 1014.7 |
| 20260508135936 | 22 | 348 | 6.4 | 14.5 | 0.00 | 0.00 | 0.00 | 56 | 1014.8 |
| 20260508135436 | 22 | 329 | 3.2 | 12.9 | 0.00 | 0.00 | 0.00 | 55 | 1014.8 |
| 20260508134936 | 22 | 5 | 3.2 | 11.3 | 0.00 | 0.00 | 0.00 | 55 | 1014.8 |
| 20260508134435 | 22 | 5 | 3.2 | 16.1 | 0.00 | 0.00 | 0.00 | 57 | 1014.8 |
| 20260508133935 | 22 | 303 | 6.4 | 14.5 | 0.00 | 0.00 | 0.00 | 56 | 1014.9 |
| 20260508133435 | 22 | 310 | 4.8 | 11.3 | 0.00 | 0.00 | 0.00 | 59 | 1014.9 |
| 20260508132936 | 22 | 336 | 3.2 | 12.9 | 0.00 | 0.00 | 0.00 | 59 | 1015.0 |
| 20260508132435 | 21 | 30 | 3.2 | 11.3 | 0.00 | 0.00 | 0.00 | 53 | 1015.0 |
| 20260508131935 | 21 | 350 | 3.2 | 12.9 | 0.00 | 0.00 | 0.00 | 61 | 1015.0 |
| 20260508131435 | 21 | 263 | 3.2 | 8.0 | 0.00 | 0.00 | 0.00 | 56 | 1015.1 |
| 20260508130935 | 22 | 199 | 4.8 | 11.3 | 0.00 | 0.00 | 0.00 | 61 | 1015.2 |
| 20260508130435 | 22 | 193 | 8.0 | 17.7 | 0.00 | 0.00 | 0.00 | 61 | 1015.2 |
| 20260508125935 | 21 | 72 | 8.0 | 16.1 | 0.00 | 0.00 | 0.00 | 58 | 1015.2 |
| 20260508125436 | 22 | 320 | 4.8 | 12.9 | 0.00 | 0.00 | 0.00 | 56 | 1015.3 |
| 20260508124935 | 21 | 325 | 6.4 | 12.9 | 0.00 | 0.00 | 0.00 | 62 | 1015.3 |
| 20260508124435 | 21 | 335 | 6.4 | 14.5 | 0.00 | 0.00 | 0.00 | 60 | 1015.4 |
| 20260508123936 | 21 | 360 | 4.8 | 12.9 | 0.00 | 0.00 | 0.00 | 62 | 1015.4 |
| 20260508123436 | 21 | 332 | 6.4 | 16.1 | 0.00 | 0.00 | 0.00 | 59 | 1015.4 |
| 20260508122935 | 21 | 11 | 4.8 | 16.1 | 0.00 | 0.00 | 0.00 | 65 | 1015.5 |
| 20260508122435 | 21 | 246 | 4.8 | 14.5 | 0.00 | 0.00 | 0.00 | 61 | 1015.5 |
| 20260508121935 | 21 | 311 | 8.0 | 12.9 | 0.00 | 0.00 | 0.00 | 61 | 1015.6 |
| 20260508121434 | 21 | 331 | 4.8 | 12.9 | 0.00 | 0.00 | 0.00 | 65 | 1015.5 |
| 20260508120935 | 20 | 5 | 3.2 | 9.7 | 0.00 | 0.00 | 0.00 | 66 | 1015.6 |
| 20260508120435 | 21 | 5 | 6.4 | 9.7 | 0.00 | 0.00 | 0.00 | 63 | 1015.7 |
| 20260508115935 | 21 | 88 | 1.6 | 9.7 | 0.00 | 0.00 | 0.00 | 62 | 1015.6 |
| 20260508115434 | 20 | 269 | 3.2 | 12.9 | 0.00 | 0.00 | 0.00 | 69 | 1015.6 |
| 20260508114936 | 20 | 360 | 4.8 | 11.3 | 0.00 | 0.00 | 0.00 | 64 | 1015.6 |
| 20260508114435 | 20 | 59 | 3.2 | 9.7 | 0.00 | 0.00 | 0.00 | 67 | 1015.7 |
| 20260508113935 | 20 | 309 | 1.6 | 8.0 | 0.00 | 0.00 | 0.00 | 67 | 1015.8 |
| 20260508113435 | 20 | 262 | 3.2 | 11.3 | 0.00 | 0.00 | 0.00 | 68 | 1015.8 |
| 20260508112935 | 19 | 313 | 6.4 | 14.5 | 0.00 | 0.00 | 0.00 | 67 | 1015.9 |
| 20260508112435 | 19 | 101 | 4.8 | 12.9 | 0.00 | 0.00 | 0.00 | 64 | 1015.9 |
| 20260508111936 | 19 | 10 | 3.2 | 14.5 | 0.00 | 0.00 | 0.00 | 68 | 1016.0 |
| 20260508111435 | 18 | 333 | 1.6 | 12.9 | 0.00 | 0.00 | 0.00 | 66 | 1016.1 |
| 20260508110936 | 18 | 294 | 3.2 | 14.5 | 0.00 | 0.00 | 0.00 | 67 | 1016.1 |
| 20260508110436 | 18 | 262 | 9.7 | 12.9 | 0.00 | 0.00 | 0.00 | 66 | 1016.2 |
| 20260508105935 | 18 | 332 | 3.2 | 17.7 | 0.00 | 0.00 | 0.00 | 65 | 1016.3 |
| 20260508105435 | 18 | 17 | 3.2 | 11.3 | 0.00 | 0.00 | 0.00 | 67 | 1016.3 |
| 20260508104935 | 18 | 140 | 9.7 | 14.5 | 0.00 | 0.00 | 0.00 | 68 | 1016.4 |
| 20260508104435 | 18 | 229 | 3.2 | 9.7 | 0.00 | 0.00 | 0.00 | 63 | 1016.3 |
| 20260508103935 | 18 | 19 | 6.4 | 12.9 | 0.00 | 0.00 | 0.00 | 64 | 1016.4 |
| 20260508103436 | 17 | 16 | 4.8 | 8.0 | 0.00 | 0.00 | 0.00 | 68 | 1016.5 |
| 20260508102934 | 17 | 337 | 3.2 | 8.0 | 0.00 | 0.00 | 0.00 | 71 | 1016.5 |
| 20260508102436 | 17 | 215 | 3.2 | 12.9 | 0.00 | 0.00 | 0.00 | 64 | 1016.5 |
| 20260508101935 | 17 | 189 | 3.2 | 8.0 | 0.00 | 0.00 | 0.00 | 70 | 1016.5 |
| 20260508101436 | 17 | 90 | 4.8 | 9.7 | 0.00 | 0.00 | 0.00 | 67 | 1016.6 |
| 20260508100934 | 17 | 311 | 3.2 | 9.7 | 0.00 | 0.00 | 0.00 | 68 | 1016.5 |
| 20260508100435 | 16 | 32 | 3.2 | 12.9 | 0.00 | 0.00 | 0.00 | 73 | 1016.6 |
| 20260508095935 | 16 | 231 | 4.8 | 12.9 | 0.00 | 0.03 | 0.00 | 73 | 1016.7 |
| 20260508095436 | 16 | 69 | 1.6 | 11.3 | 0.00 | 0.03 | 0.00 | 72 | 1016.7 |
| 20260508094935 | 16 | 318 | 1.6 | 9.7 | 0.00 | 0.03 | 0.00 | 75 | 1016.8 |
| 20260508094436 | 16 | 338 | 6.4 | 14.5 | 0.00 | 0.03 | 0.00 | 75 | 1016.8 |
| 20260508093935 | 15 | 334 | 6.4 | 11.3 | 0.00 | 0.03 | 0.00 | 76 | 1016.8 |
| 20260508093435 | 15 | 342 | 3.2 | 11.3 | 0.00 | 0.03 | 0.00 | 78 | 1016.9 |
| 20260508092936 | 15 | 331 | 1.6 | 8.0 | 0.00 | 0.03 | 0.00 | 80 | 1016.9 |
| 20260508092436 | 15 | 336 | 3.2 | 9.7 | 0.00 | 0.03 | 0.00 | 80 | 1017.0 |
| 20260508091936 | 14 | 329 | 3.2 | 9.7 | 0.00 | 0.03 | 0.00 | 85 | 1017.0 |
| 20260508091436 | 13 | 132 | 1.6 | 8.0 | 0.00 | 0.03 | 0.00 | 82 | 1017.0 |
| 20260508090935 | 13 | 342 | 1.6 | 9.7 | 0.00 | 0.03 | 0.00 | 86 | 1017.1 |
| 20260508090436 | 12 | 319 | 1.6 | 11.3 | 0.00 | 0.03 | 0.00 | 88 | 1017.2 |
| 20260508085934 | 12 | 5 | 4.8 | 8.0 | 0.00 | 0.03 | 0.00 | 90 | 1017.2 |
| 20260508085436 | 12 | 319 | 4.8 | 8.0 | 0.00 | 0.03 | 0.00 | 91 | 1017.1 |
| 20260508084936 | 11 | 360 | 1.6 | 8.0 | 0.00 | 0.03 | 0.00 | 91 | 1017.2 |
| 20260508084435 | 11 | 282 | 6.4 | 9.7 | 0.00 | 0.03 | 0.00 | 92 | 1017.2 |
| 20260508083936 | 11 | 313 | 3.2 | 8.0 | 0.00 | 0.03 | 0.00 | 92 | 1017.2 |
| 20260508083435 | 11 | 32 | 1.6 | 3.2 | 0.00 | 0.03 | 0.00 | 92 | 1017.2 |
| 20260508082935 | 10 | 272 | 1.6 | 6.4 | 0.00 | 0.03 | 0.00 | 93 | 1017.2 |
| 20260508082434 | 10 | 346 | 3.2 | 8.0 | 0.00 | 0.03 | 0.00 | 92 | 1017.2 |
| 20260508081935 | 10 | 315 | 3.2 | 8.0 | 0.00 | 0.03 | 0.00 | 92 | 1017.2 |
| 20260508081436 | 10 | 278 | 3.2 | 6.4 | 0.00 | 0.03 | 0.00 | 92 | 1017.3 |
| 20260508080935 | 10 | 321 | 3.2 | 8.0 | 0.00 | 0.03 | 0.00 | 93 | 1017.2 |
| 20260508080435 | 9 | 246 | 1.6 | 4.8 | 0.00 | 0.03 | 0.00 | 93 | 1017.2 |
| 20260508075936 | 9 | 284 | 1.6 | 4.8 | 0.00 | 0.03 | 0.00 | 92 | 1017.2 |
| 20260508075436 | 9 | 313 | 3.2 | 6.4 | 0.00 | 0.03 | 0.00 | 92 | 1017.3 |
| 20260508074936 | 9 | 5 | 3.2 | 6.4 | 0.00 | 0.03 | 0.00 | 92 | 1017.3 |
| 20260508074436 | 9 | 274 | 3.2 | 6.4 | 0.00 | 0.03 | 0.00 | 93 | 1017.3 |
| 20260508073935 | 9 | 186 | 1.6 | 4.8 | 0.00 | 0.03 | 0.00 | 93 | 1017.2 |
| 20260508073436 | 8 | 242 | 1.6 | 4.8 | 0.00 | 0.03 | 0.00 | 93 | 1017.2 |
| 20260508072935 | 8 | 269 | 0.0 | 3.2 | 0.00 | 0.03 | 0.00 | 93 | 1017.1 |
| 20260508072436 | 8 | 294 | 3.2 | 4.8 | 0.00 | 0.03 | 0.00 | 93 | 1017.1 |
| 20260508071936 | 8 | 325 | 0.0 | 3.2 | 0.00 | 0.03 | 0.00 | 93 | 1017.1 |
| 20260508071435 | 8 | 127 | 0.0 | 1.6 | 0.00 | 0.03 | 0.00 | 93 | 1017.2 |
| 20260508070935 | 8 | 69 | 1.6 | 1.6 | 0.00 | 0.03 | 0.00 | 93 | 1017.2 |
| 20260508070436 | 8 | 65 | 1.6 | 3.2 | 0.00 | 0.03 | 0.00 | 93 | 1017.1 |
| 20260508065935 | 8 | 192 | 0.0 | 3.2 | 0.00 | 0.03 | 0.00 | 93 | 1017.1 |
| 20260508065434 | 8 | 303 | 3.2 | 4.8 | 0.00 | 0.03 | 0.00 | 93 | 1017.1 |
| 20260508064936 | 7 | 296 | 1.6 | 3.2 | 0.00 | 0.03 | 0.00 | 92 | 1017.1 |
| 20260508064436 | 7 | 203 | 0.0 | 3.2 | 0.00 | 0.03 | 0.00 | 92 | 1017.1 |
| 20260508063936 | 7 | 199 | 0.0 | 0.0 | 0.00 | 0.03 | 0.00 | 92 | 1017.1 |
| 20260508063436 | 7 | 217 | 1.6 | 3.2 | 0.00 | 0.03 | 0.00 | 92 | 1017.0 |
| 20260508062936 | 7 | 231 | 0.0 | 1.6 | 0.00 | 0.03 | 0.00 | 92 | 1017.0 |
| 20260508062436 | 7 | 229 | 1.6 | 3.2 | 0.00 | 0.03 | 0.00 | 92 | 1017.0 |
| 20260508061935 | 7 | 301 | 1.6 | 3.2 | 0.00 | 0.03 | 0.00 | 92 | 1016.9 |
| 20260508061435 | 7 | 248 | 1.6 | 3.2 | 0.00 | 0.03 | 0.00 | 92 | 1016.9 |
| 20260508060936 | 7 | 306 | 1.6 | 3.2 | 0.00 | 0.03 | 0.00 | 92 | 1016.8 |
| 20260508060435 | 7 | 271 | 1.6 | 3.2 | 0.00 | 0.03 | 0.00 | 92 | 1016.7 |
| 20260508055936 | 7 | 129 | 0.0 | 3.2 | 0.00 | 0.03 | 0.00 | 92 | 1016.7 |
| 20260508055435 | 7 | 124 | 0.0 | 1.6 | 0.00 | 0.03 | 0.00 | 92 | 1016.8 |
| 20260508054935 | 7 | 164 | 0.0 | 1.6 | 0.00 | 0.03 | 0.00 | 92 | 1016.8 |
| 20260508054436 | 7 | 188 | 0.0 | 0.0 | 0.00 | 0.03 | 0.00 | 92 | 1016.7 |
| 20260508053936 | 7 | 205 | 0.0 | 1.6 | 0.00 | 0.03 | 0.00 | 92 | 1016.7 |
| 20260508053436 | 7 | 311 | 0.0 | 3.2 | 0.00 | 0.03 | 0.00 | 92 | 1016.7 |
| 20260508052935 | 7 | 253 | 0.0 | 1.6 | 0.00 | 0.03 | 0.00 | 92 | 1016.7 |
| 20260508052435 | 7 | 232 | 0.0 | 1.6 | 0.00 | 0.03 | 0.00 | 92 | 1016.6 |
| 20260508051934 | 7 | 202 | 0.0 | 3.2 | 0.00 | 0.03 | 0.00 | 92 | 1016.7 |
| 20260508051435 | 7 | 227 | 0.0 | 1.6 | 0.00 | 0.03 | 0.00 | 92 | 1016.6 |
| 20260508050935 | 6 | 202 | 1.6 | 3.2 | 0.00 | 0.03 | 0.00 | 92 | 1016.6 |
| 20260508050435 | 6 | 238 | 0.0 | 1.6 | 0.00 | 0.03 | 0.00 | 92 | 1016.6 |
| 20260508045936 | 6 | 238 | 0.0 | 1.6 | 0.00 | 0.08 | 0.00 | 92 | 1016.5 |
| 20260508045435 | 6 | 133 | 0.0 | 1.6 | 0.00 | 0.08 | 0.00 | 92 | 1016.5 |
| 20260508044935 | 5 | 132 | 0.0 | 1.6 | 0.00 | 0.08 | 0.00 | 91 | 1016.5 |
| 20260508044435 | 5 | 132 | 1.6 | 1.6 | 0.00 | 0.08 | 0.00 | 91 | 1016.5 |
| 20260508043935 | 5 | 137 | 0.0 | 1.6 | 0.00 | 0.08 | 0.00 | 91 | 1016.6 |
| 20260508043436 | 5 | 137 | 0.0 | 1.6 | 0.00 | 0.08 | 0.00 | 91 | 1016.5 |
| 20260508042936 | 5 | 140 | 0.0 | 0.0 | 0.00 | 0.08 | 0.00 | 91 | 1016.6 |
| 20260508042435 | 5 | 140 | 0.0 | 1.6 | 0.00 | 0.08 | 0.00 | 91 | 1016.5 |
| 20260508041936 | 5 | 140 | 0.0 | 0.0 | 0.00 | 0.08 | 0.00 | 91 | 1016.5 |
| 20260508041435 | 5 | 140 | 0.0 | 0.0 | 0.00 | 0.08 | 0.00 | 91 | 1016.5 |
| 20260508040936 | 5 | 141 | 0.0 | 0.0 | 0.00 | 0.08 | 0.00 | 91 | 1016.4 |
| 20260508040436 | 5 | 141 | 0.0 | 1.6 | 0.00 | 0.08 | 0.00 | 91 | 1016.3 |
| 20260508035935 | 5 | 141 | 1.6 | 3.2 | 0.00 | 0.10 | 0.00 | 91 | 1016.3 |
| 20260508035436 | 5 | 141 | 0.0 | 1.6 | 0.00 | 0.10 | 0.00 | 90 | 1016.3 |
| 20260508034936 | 5 | 141 | 0.0 | 0.0 | 0.00 | 0.10 | 0.00 | 90 | 1016.3 |
| 20260508034436 | 5 | 141 | 0.0 | 1.6 | 0.00 | 0.10 | 0.00 | 90 | 1016.3 |
| 20260508033935 | 5 | 141 | 0.0 | 0.0 | 0.00 | 0.10 | 0.00 | 90 | 1016.2 |
| 20260508033436 | 5 | 141 | 0.0 | 0.0 | 0.00 | 0.10 | 0.00 | 90 | 1016.2 |
| 20260508032936 | 5 | 141 | 0.0 | 1.6 | 0.00 | 0.10 | 0.00 | 90 | 1016.2 |
| 20260508032435 | 5 | 142 | 0.0 | 1.6 | 0.00 | 0.10 | 0.00 | 90 | 1016.2 |
| 20260508031936 | 5 | 142 | 0.0 | 0.0 | 0.00 | 0.10 | 0.00 | 90 | 1016.2 |
| 20260508031209 | 5 | 142 | 0.0 | 1.6 | 0.00 | 0.10 | 0.00 | 90 | 1016.2 |
| 20260508030709 | 5 | 142 | 0.0 | 0.0 | 0.00 | 0.10 | 0.00 | 90 | 1016.1 |
| 20260508030210 | 5 | 146 | 0.0 | 0.0 | 0.00 | 0.10 | 0.00 | 90 | 1016.1 |
| 20260508025710 | 5 | 146 | 0.0 | 0.0 | 0.00 | 0.18 | 0.00 | 90 | 1016.2 |
| 20260508025210 | 5 | 146 | 0.0 | 1.6 | 0.00 | 0.18 | 0.00 | 90 | 1016.1 |
| 20260508024710 | 5 | 128 | 0.0 | 1.6 | 0.00 | 0.18 | 0.00 | 90 | 1016.1 |
| 20260508024210 | 5 | 128 | 0.0 | 1.6 | 0.00 | 0.18 | 0.00 | 90 | 1016.1 |
| 20260508023710 | 5 | 128 | 0.0 | 1.6 | 0.00 | 0.18 | 0.00 | 90 | 1016.1 |
| 20260508023209 | 5 | 128 | 0.0 | 0.0 | 0.00 | 0.18 | 0.00 | 90 | 1016.2 |
| 20260508022711 | 5 | 128 | 0.0 | 1.6 | 0.00 | 0.18 | 0.00 | 90 | 1016.1 |
| 20260508022210 | 5 | 128 | 0.0 | 1.6 | 0.00 | 0.18 | 0.00 | 90 | 1016.2 |
| 20260508021708 | 5 | 128 | 0.0 | 0.0 | 0.00 | 0.18 | 0.00 | 90 | 1016.2 |
| 20260508021210 | 5 | 128 | 0.0 | 0.0 | 0.00 | 0.18 | 0.00 | 90 | 1016.1 |
| 20260508020709 | 5 | 128 | 0.0 | 3.2 | 0.00 | 0.18 | 0.00 | 90 | 1016.2 |
| 20260508020208 | 5 | 119 | 0.0 | 1.6 | 0.00 | 0.18 | 0.00 | 90 | 1016.1 |
| 20260508015709 | 5 | 123 | 0.0 | 1.6 | 0.00 | 0.23 | 0.00 | 90 | 1016.1 |
| 20260508015209 | 6 | 123 | 0.0 | 0.0 | 0.00 | 0.23 | 0.00 | 90 | 1016.1 |
| 20260508014710 | 6 | 123 | 0.0 | 0.0 | 0.00 | 0.23 | 0.00 | 90 | 1016.0 |
| 20260508014208 | 6 | 123 | 0.0 | 0.0 | 0.00 | 0.23 | 0.00 | 90 | 1016.0 |
| 20260508013710 | 6 | 123 | 0.0 | 0.0 | 0.00 | 0.23 | 0.00 | 90 | 1016.0 |
| 20260508013210 | 6 | 123 | 0.0 | 1.6 | 0.00 | 0.23 | 0.00 | 90 | 1016.0 |
| 20260508012710 | 6 | 123 | 0.0 | 1.6 | 0.00 | 0.23 | 0.00 | 90 | 1015.9 |
| 20260508012210 | 6 | 123 | 1.6 | 3.2 | 0.00 | 0.23 | 0.00 | 90 | 1015.9 |
| 20260508011710 | 6 | 107 | 0.0 | 3.2 | 0.00 | 0.23 | 0.00 | 90 | 1015.9 |
| 20260508011209 | 6 | 105 | 0.0 | 0.0 | 0.00 | 0.23 | 0.00 | 90 | 1015.9 |
| 20260508010710 | 6 | 105 | 0.0 | 0.0 | 0.00 | 0.23 | 0.00 | 90 | 1015.9 |
| 20260508010209 | 6 | 105 | 0.0 | 1.6 | 0.00 | 0.23 | 0.00 | 90 | 1015.8 |
| 20260508005710 | 6 | 95 | 0.0 | 1.6 | 0.00 | 0.33 | 0.00 | 90 | 1015.9 |
| 20260508005209 | 6 | 86 | 0.0 | 0.0 | 0.00 | 0.33 | 0.00 | 90 | 1015.8 |
| 20260508004708 | 6 | 86 | 0.0 | 1.6 | 0.00 | 0.33 | 0.00 | 89 | 1015.9 |
| 20260508004210 | 6 | 52 | 0.0 | 1.6 | 0.00 | 0.33 | 0.00 | 90 | 1016.0 |
| 20260508003709 | 6 | 110 | 0.0 | 1.6 | 0.00 | 0.33 | 0.00 | 90 | 1016.0 |
| 20260508003208 | 6 | 135 | 0.0 | 0.0 | 0.00 | 0.33 | 0.00 | 89 | 1016.1 |
| 20260508002710 | 6 | 135 | 0.0 | 3.2 | 0.00 | 0.33 | 0.00 | 89 | 1016.0 |
| 20260508002210 | 6 | 135 | 1.6 | 3.2 | 0.00 | 0.33 | 0.00 | 89 | 1016.1 |
| 20260508001708 | 6 | 110 | 0.0 | 1.6 | 0.00 | 0.33 | 0.00 | 89 | 1016.0 |
| 20260508001209 | 6 | 132 | 0.0 | 0.0 | 0.00 | 0.33 | 0.00 | 89 | 1016.0 |
| 20260508000708 | 6 | 132 | 0.0 | 0.0 | 0.00 | 0.33 | 0.00 | 89 | 1016.1 |
| 20260508000212 | 6 | 132 | 0.0 | 1.6 | 0.00 | 0.33 | 0.00 | 89 | 1016.1 |
| 20260507235710 | 6 | 149 | 0.0 | 0.0 | 0.00 | 0.43 | 0.00 | 89 | 1016.1 |
| 20260507235208 | 7 | 149 | 1.6 | 1.6 | 0.00 | 0.43 | 0.00 | 89 | 1016.2 |
| 20260507234709 | 7 | 142 | 0.0 | 1.6 | 0.00 | 0.43 | 0.00 | 89 | 1016.2 |
| 20260507234208 | 7 | 155 | 0.0 | 1.6 | 0.00 | 0.43 | 0.00 | 89 | 1016.2 |
| 20260507233710 | 7 | 194 | 0.0 | 0.0 | 0.00 | 0.43 | 0.00 | 89 | 1016.3 |
| 20260507233209 | 7 | 194 | 0.0 | 0.0 | 0.00 | 0.43 | 0.00 | 89 | 1016.3 |
| 20260507232709 | 7 | 192 | 0.0 | 3.2 | 0.00 | 0.43 | 0.00 | 89 | 1016.5 |
| 20260507232209 | 7 | 122 | 1.6 | 1.6 | 0.00 | 0.43 | 0.00 | 89 | 1016.5 |
| 20260507231709 | 7 | 95 | 0.0 | 1.6 | 0.00 | 0.43 | 0.00 | 89 | 1016.5 |
| 20260507231209 | 7 | 85 | 0.0 | 1.6 | 0.00 | 0.43 | 0.00 | 89 | 1016.5 |
| 20260507230709 | 7 | 93 | 0.0 | 1.6 | 0.00 | 0.43 | 0.00 | 88 | 1016.5 |
| 20260507230209 | 7 | 92 | 0.0 | 1.6 | 0.00 | 0.43 | 0.00 | 88 | 1016.6 |
| 20260507225711 | 7 | 39 | 0.0 | 3.2 | 0.00 | 0.48 | 0.00 | 88 | 1016.6 |
| 20260507225209 | 7 | 32 | 1.6 | 3.2 | 0.00 | 0.48 | 0.00 | 88 | 1016.6 |
| 20260507224710 | 7 | 17 | 0.0 | 1.6 | 0.00 | 0.48 | 0.00 | 88 | 1016.7 |
| 20260507224209 | 7 | 51 | 1.6 | 1.6 | 0.00 | 0.48 | 0.00 | 88 | 1016.7 |
| 20260507223709 | 7 | 101 | 0.0 | 3.2 | 0.00 | 0.48 | 0.00 | 88 | 1016.7 |
| 20260507223210 | 7 | 147 | 0.0 | 1.6 | 0.00 | 0.48 | 0.00 | 88 | 1016.7 |
| 20260507222710 | 7 | 156 | 0.0 | 1.6 | 0.00 | 0.48 | 0.00 | 88 | 1016.8 |
| 20260507222209 | 8 | 159 | 0.0 | 0.0 | 0.00 | 0.48 | 0.00 | 88 | 1016.8 |
| 20260507221709 | 8 | 159 | 1.6 | 3.2 | 0.00 | 0.48 | 0.00 | 88 | 1016.7 |
| 20260507221210 | 8 | 134 | 1.6 | 3.2 | 0.00 | 0.48 | 0.00 | 88 | 1016.7 |
| 20260507220709 | 8 | 101 | 0.0 | 0.0 | 0.00 | 0.48 | 0.00 | 88 | 1016.7 |
| 20260507220210 | 8 | 101 | 1.6 | 1.6 | 0.00 | 0.48 | 0.00 | 87 | 1016.6 |
| 20260507215709 | 8 | 36 | 0.0 | 1.6 | 0.00 | 0.56 | 0.56 | 88 | 1016.6 |
| 20260507215209 | 8 | 36 | 0.0 | 1.6 | 0.00 | 0.56 | 0.56 | 88 | 1016.6 |
| 20260507214709 | 8 | 80 | 0.0 | 1.6 | 0.00 | 0.56 | 0.56 | 88 | 1016.5 |
| 20260507214210 | 8 | 109 | 0.0 | 3.2 | 0.00 | 0.56 | 0.56 | 88 | 1016.5 |
| 20260507213709 | 8 | 146 | 0.0 | 0.0 | 0.00 | 0.56 | 0.56 | 87 | 1016.5 |
| 20260507213209 | 8 | 153 | 0.0 | 1.6 | 0.00 | 0.56 | 0.56 | 87 | 1016.5 |
| 20260507212710 | 8 | 154 | 0.0 | 1.6 | 0.00 | 0.56 | 0.56 | 87 | 1016.5 |
| 20260507212209 | 8 | 160 | 0.0 | 0.0 | 0.00 | 0.56 | 0.56 | 87 | 1016.5 |
| 20260507211710 | 8 | 161 | 0.0 | 0.0 | 0.00 | 0.56 | 0.56 | 87 | 1016.5 |
| 20260507211209 | 8 | 161 | 0.0 | 1.6 | 0.00 | 0.56 | 0.56 | 87 | 1016.5 |
| 20260507210710 | 8 | 159 | 0.0 | 1.6 | 0.00 | 0.56 | 0.56 | 86 | 1016.5 |
| 20260507210208 | 8 | 160 | 0.0 | 3.2 | 0.00 | 0.56 | 0.56 | 86 | 1016.4 |
| 20260507205710 | 8 | 145 | 0.0 | 1.6 | 0.00 | 0.69 | 0.56 | 86 | 1016.5 |
| 20260507205209 | 8 | 145 | 0.0 | 0.0 | 0.00 | 0.69 | 0.56 | 86 | 1016.5 |
| 20260507204709 | 8 | 145 | 0.0 | 1.6 | 0.00 | 0.69 | 0.56 | 85 | 1016.5 |
| 20260507204209 | 8 | 145 | 1.6 | 3.2 | 0.00 | 0.69 | 0.56 | 85 | 1016.5 |
| 20260507203709 | 8 | 138 | 0.0 | 1.6 | 0.00 | 0.69 | 0.56 | 85 | 1016.4 |
| 20260507203209 | 9 | 138 | 0.0 | 1.6 | 0.00 | 0.69 | 0.56 | 84 | 1016.3 |
| 20260507202708 | 9 | 138 | 0.0 | 1.6 | 0.00 | 0.69 | 0.56 | 84 | 1016.3 |
| 20260507202209 | 9 | 138 | 0.0 | 3.2 | 0.00 | 0.69 | 0.56 | 84 | 1016.3 |
| 20260507201710 | 9 | 140 | 0.0 | 3.2 | 0.00 | 0.69 | 0.56 | 84 | 1016.3 |
| 20260507201209 | 10 | 140 | 0.0 | 1.6 | 0.00 | 0.69 | 0.56 | 84 | 1016.2 |
| 20260507200709 | 10 | 140 | 0.0 | 3.2 | 0.00 | 0.69 | 0.56 | 84 | 1016.2 |
| 20260507200209 | 10 | 140 | 0.0 | 3.2 | 0.00 | 0.69 | 0.56 | 84 | 1016.2 |
| 20260507195709 | 10 | 140 | 1.6 | 3.2 | 0.00 | 0.84 | 0.56 | 83 | 1016.1 |
| 20260507195209 | 10 | 100 | 0.0 | 1.6 | 0.00 | 0.84 | 0.56 | 82 | 1016.0 |
| 20260507194709 | 10 | 136 | 0.0 | 1.6 | 0.00 | 0.84 | 0.56 | 82 | 1016.1 |
| 20260507194210 | 10 | 137 | 0.0 | 1.6 | 0.00 | 0.84 | 0.56 | 81 | 1016.0 |
| 20260507193709 | 11 | 137 | 0.0 | 1.6 | 0.00 | 0.84 | 0.56 | 82 | 1016.0 |
| 20260507193210 | 11 | 138 | 1.6 | 3.2 | 0.00 | 0.84 | 0.56 | 81 | 1016.0 |
| 20260507192709 | 11 | 136 | 0.0 | 1.6 | 0.00 | 0.84 | 0.56 | 81 | 1015.9 |
| 20260507192209 | 11 | 138 | 0.0 | 1.6 | 0.00 | 0.84 | 0.56 | 80 | 1015.9 |
| 20260507191709 | 11 | 139 | 0.0 | 1.6 | 0.00 | 0.84 | 0.56 | 80 | 1015.9 |
| 20260507191209 | 11 | 125 | 1.6 | 1.6 | 0.00 | 0.84 | 0.56 | 79 | 1015.8 |
| 20260507190709 | 12 | 128 | 1.6 | 3.2 | 0.00 | 0.84 | 0.56 | 79 | 1015.7 |
| 20260507190208 | 12 | 81 | 1.6 | 3.2 | 0.00 | 0.84 | 0.56 | 79 | 1015.7 |
| 20260507185710 | 12 | 55 | 0.0 | 3.2 | 0.00 | 1.04 | 0.56 | 78 | 1015.6 |
| 20260507185208 | 12 | 53 | 1.6 | 3.2 | 0.00 | 1.04 | 0.56 | 78 | 1015.6 |
| 20260507184708 | 12 | 51 | 1.6 | 3.2 | 0.00 | 1.04 | 0.56 | 78 | 1015.6 |
| 20260507184209 | 13 | 37 | 1.6 | 3.2 | 0.00 | 1.04 | 0.56 | 77 | 1015.6 |
| 20260507183708 | 13 | 94 | 0.0 | 3.2 | 0.00 | 1.04 | 0.56 | 76 | 1015.5 |
| 20260507183209 | 13 | 80 | 0.0 | 1.6 | 0.00 | 1.04 | 0.56 | 76 | 1015.6 |
| 20260507182709 | 13 | 80 | 1.6 | 3.2 | 0.00 | 1.04 | 0.56 | 75 | 1015.5 |
| 20260507182209 | 13 | 5 | 0.0 | 1.6 | 0.00 | 1.04 | 0.56 | 74 | 1015.6 |
| 20260507181709 | 13 | 349 | 0.0 | 1.6 | 0.00 | 1.04 | 0.56 | 74 | 1015.5 |